Weather History for KEVW - January, 2013

Change the Weather History Date:

Sunday, January 27, 2013

  Actual Average Record
Temperature  
Mean Temperature 28 °F 22 °F  
Max Temperature 36 °F 29 °F 48 °F (2015)
Min Temperature 19 °F 14 °F -4 °F (2009)
Degree Days  
Heating Degree Days 37 43  
Month to date heating degree days 1198 1171  
Since 1 July heating degree days 4172 4650  
Cooling Degree Days 0 0  
Month to date cooling degree days 0 0  
Year to date cooling degree days 0 0  
Moisture  
Dew Point 26 °F    
Average Humidity 88    
Maximum Humidity 100    
Minimum Humidity 75    
Precipitation  
Precipitation 0.04 in 0.01 in 0.11 in (2003)
Month to date precipitation 0.06 0.47  
Year to date precipitation 0.06 0.47  
Sea Level Pressure  
Sea Level Pressure 29.73 in    
Wind  
Wind Speed 14 mph (SW)    
Max Wind Speed 38 mph    
Max Gust Speed 46 mph    
Visibility 4 miles    
Events Fog , Snow    
T = Trace of Precipitation, MM = Missing Value Source: NWS Daily Summary

Daily Weather History Graph

Daily Weather History Graph

Search for Another Location

Airport or City:

Trip Planner

Search our weather history database for the weather conditions in past years. The results will help you decide how hot, cold, wet, or windy it might be!

Date:

Astronomy

Jan. 27, 2013 Rise Set
Actual Time 7:39 AM MST 5:34 PM MST
Civil Twilight 7:10 AM MST 6:04 PM MST
Nautical Twilight 6:36 AM MST 6:37 PM MST
Astronomical Twilight 6:04 AM MST 7:10 PM MST
Moon 6:33 PM MST (1/27) 7:33 AM MST (1/27)
Length of Visible Light 10h 54m
Length of Day
9h 55m
Full, 100% of the Moon is Illuminated
Jan 27
Full
Feb 3
Last Quarter
Feb 10
New
Feb 17
First Quarter
Feb 25
Full

Hourly Weather History & Observations

Time (MST) Temp. Windchill Dew Point Humidity Pressure Visibility Wind Dir Wind Speed Gust Speed Precip Events Conditions
12:53 AM 32.0 °F 24.8 °F 28.9 °F 88% 29.78 in 10.0 mi SW 8.1 mph - N/A   Overcast
1:53 AM 30.9 °F 24.3 °F 28.9 °F 92% 29.76 in 10.0 mi SSW 6.9 mph - N/A   Overcast
2:06 AM 30.2 °F 23.4 °F 28.4 °F 93% 29.80 in 10.0 mi SSW 6.9 mph - N/A   Mostly Cloudy
2:16 AM 30.2 °F 23.4 °F 28.4 °F 93% 29.80 in 10.0 mi SW 6.9 mph - N/A   Mostly Cloudy
2:25 AM 30.2 °F 23.4 °F 28.4 °F 93% 29.80 in 10.0 mi SW 6.9 mph - N/A   Mostly Cloudy
2:34 AM 30.2 °F 22.6 °F 28.4 °F 93% 29.80 in 9.0 mi SW 8.1 mph - N/A   Overcast
2:44 AM 30.2 °F 21.9 °F 28.4 °F 93% 29.80 in 10.0 mi SW 9.2 mph - N/A   Overcast
2:51 AM 30.2 °F 21.9 °F 28.4 °F 93% 29.80 in 8.0 mi WSW 9.2 mph - N/A   Overcast
2:53 AM 30.9 °F 22.8 °F 28.9 °F 92% 29.77 in 6.0 mi WSW 9.2 mph - N/A   Overcast
3:34 AM 30.2 °F 21.9 °F 28.4 °F 93% 29.79 in 1.8 mi SW 9.2 mph - N/A   Overcast
3:41 AM 30.2 °F 21.3 °F 28.4 °F 93% 29.79 in 1.0 mi SW 10.4 mph - N/A   Overcast
3:46 AM 30.2 °F 20.2 °F 28.4 °F 93% 29.79 in 2.5 mi SW 12.7 mph - N/A   Overcast
3:53 AM 30.9 °F 21.7 °F 30.0 °F 96% 29.75 in 9.0 mi SW 11.5 mph - N/A   Overcast
4:02 AM 32.0 °F 23.0 °F 30.2 °F 93% 29.79 in 10.0 mi SW 11.5 mph - N/A   Overcast
4:11 AM 32.0 °F 22.5 °F 30.2 °F 93% 29.79 in 10.0 mi SW 12.7 mph - N/A   Overcast
4:32 AM 32.0 °F 23.6 °F 30.2 °F 93% 29.78 in 1.5 mi SW 10.4 mph - N/A   Overcast
4:43 AM 30.2 °F 20.2 °F 30.2 °F 100% 29.78 in 1.8 mi SW 12.7 mph - N/A   Overcast
4:49 AM 30.2 °F 20.2 °F 28.4 °F 93% 29.78 in 0.8 mi SW 12.7 mph - N/A   Overcast
4:53 AM 30.9 °F 20.7 °F 28.9 °F 92% 29.74 in 0.5 mi SW 13.8 mph - N/A Fog Light Freezing Fog
5:08 AM 30.2 °F 21.3 °F 28.4 °F 93% 29.78 in 1.8 mi SW 10.4 mph - N/A   Overcast
5:10 AM 30.2 °F 20.2 °F 28.4 °F 93% 29.78 in 3.0 mi SSW 12.7 mph - N/A   Overcast
5:18 AM 30.2 °F 20.2 °F 30.2 °F 100% 29.78 in 9.0 mi SW 12.7 mph - N/A   Overcast
5:29 AM 30.2 °F 21.3 °F 30.2 °F 100% 29.77 in 1.5 mi SW 10.4 mph - N/A   Overcast
5:37 AM 30.2 °F 20.8 °F 30.2 °F 100% 29.77 in 0.5 mi SW 11.5 mph - N/A Fog Light Freezing Fog
5:53 AM 30.9 °F 21.7 °F 30.0 °F 96% 29.74 in 0.5 mi SW 11.5 mph - N/A Fog Light Freezing Fog
6:53 AM 28.9 °F 19.2 °F 28.0 °F 96% 29.74 in 0.2 mi SW 11.5 mph - N/A Fog Light Freezing Fog
7:53 AM 28.0 °F 20.0 °F 27.0 °F 96% 29.74 in 0.2 mi South 8.1 mph - N/A Fog Light Freezing Fog
8:05 AM 28.4 °F 20.4 °F 26.6 °F 93% 29.75 in 2.0 mi SW 8.1 mph - N/A   Mostly Cloudy
8:09 AM 26.6 °F 20.0 °F 26.6 °F 100% 29.75 in 1.5 mi Variable 5.8 mph - N/A   Mostly Cloudy
8:34 AM 26.6 °F - 24.8 °F 93% 29.75 in 0.2 mi Calm Calm - N/A Fog Light Freezing Fog
8:53 AM 28.0 °F - 28.0 °F 100% 29.74 in 0.2 mi Calm Calm - N/A Fog Light Freezing Fog
9:53 AM 30.0 °F 24.1 °F 28.9 °F 96% 29.75 in 0.2 mi South 5.8 mph - N/A Fog Light Freezing Fog
9:57 AM 30.2 °F 21.9 °F 28.4 °F 93% 29.75 in 0.5 mi SSW 9.2 mph - N/A Fog Light Freezing Fog
10:00 AM 30.2 °F 22.6 °F 28.4 °F 93% 29.75 in 2.0 mi SSW 8.1 mph - N/A   Overcast
10:07 AM 30.2 °F 21.9 °F 28.4 °F 93% 29.75 in 10.0 mi SSW 9.2 mph - N/A   Overcast
10:53 AM 33.1 °F 22.2 °F 28.9 °F 85% 29.68 in 10.0 mi South 17.3 mph 23.0 mph N/A   Partly Cloudy
11:53 AM 33.1 °F 20.3 °F 28.0 °F 82% 29.67 in 5.0 mi SSW 24.2 mph 34.5 mph 0.00 in Snow Light Snow
11:58 AM 33.8 °F 21.3 °F 28.4 °F 81% 29.70 in 1.8 mi SSW 24.2 mph 34.5 mph 0.00 in Snow Light Snow
12:01 PM 32.0 °F 20.1 °F 28.4 °F 87% 29.70 in 0.8 mi SSW 19.6 mph 34.5 mph 0.00 in Snow Light Snow
12:15 PM 32.0 °F 20.5 °F 30.2 °F 93% 29.69 in 0.5 mi SW 18.4 mph - 0.00 in Fog , Snow Snow
12:26 PM 32.0 °F 20.8 °F 30.2 °F 93% 29.68 in 0.8 mi SW 17.3 mph - 0.00 in Snow Light Snow
12:32 PM 33.8 °F 23.5 °F 32.0 °F 93% 29.68 in 1.2 mi SW 16.1 mph - 0.00 in Snow Light Snow
12:36 PM 33.8 °F 23.2 °F 32.0 °F 93% 29.68 in 2.5 mi SW 17.3 mph - 0.00 in Snow Light Snow
12:43 PM 33.8 °F 23.9 °F 32.0 °F 93% 29.67 in 9.0 mi SSW 15.0 mph - 0.00 in   Overcast
12:53 PM 34.0 °F 23.0 °F 32.0 °F 92% 29.63 in 10.0 mi South 18.4 mph 23.0 mph 0.00 in   Mostly Cloudy
1:04 PM 33.8 °F 21.9 °F 30.2 °F 87% 29.64 in 10.0 mi SSW 21.9 mph 28.8 mph N/A   Scattered Clouds
1:53 PM 34.0 °F 20.3 °F 30.0 °F 85% 29.60 in 8.0 mi SW 29.9 mph 41.4 mph 0.00 in Snow Light Snow
2:10 PM 33.8 °F 20.5 °F 30.2 °F 87% 29.63 in 2.5 mi SSW 27.6 mph 35.7 mph 0.00 in Snow Light Snow
2:15 PM 33.8 °F 20.3 °F 28.4 °F 81% 29.62 in 1.5 mi SSW 28.8 mph 38.0 mph 0.00 in Snow Light Snow
2:19 PM 33.8 °F 20.8 °F 30.2 °F 87% 29.62 in 2.0 mi SSW 26.5 mph 38.0 mph 0.00 in Snow Light Snow
2:27 PM 35.6 °F 23.7 °F 30.2 °F 81% 29.62 in 8.0 mi SW 24.2 mph 34.5 mph 0.00 in   Scattered Clouds
2:53 PM 35.1 °F 22.2 °F 27.0 °F 72% 29.59 in 10.0 mi SSW 27.6 mph 35.7 mph 0.00 in   Scattered Clouds
3:53 PM 32.0 °F 18.6 °F 28.9 °F 88% 29.62 in 5.0 mi SW 25.3 mph 31.1 mph 0.00 in Snow Light Snow
4:01 PM 32.0 °F 19.2 °F 28.4 °F 87% 29.64 in 1.8 mi SW 23.0 mph 34.5 mph 0.00 in Snow Light Snow
4:04 PM 32.0 °F 18.6 °F 28.4 °F 87% 29.64 in 0.8 mi SW 25.3 mph 32.2 mph 0.00 in Snow Light Snow
4:18 PM 30.2 °F 16.8 °F 28.4 °F 93% 29.64 in 0.5 mi SW 23.0 mph - 0.00 in Fog , Snow Snow
4:30 PM 30.2 °F 18.5 °F 28.4 °F 93% 29.65 in 0.2 mi WNW 17.3 mph 33.4 mph 0.00 in Fog , Snow Snow
4:38 PM 26.6 °F 14.3 °F 26.6 °F 100% 29.66 in 0.2 mi NW 16.1 mph - 0.00 in Fog , Snow Heavy Snow
4:51 PM 26.6 °F 15.7 °F 24.8 °F 93% 29.67 in 0.5 mi NNW 12.7 mph - 0.00 in Fog , Snow Snow
4:53 PM 27.0 °F 16.1 °F 25.0 °F 92% 29.68 in 0.5 mi NNW 12.7 mph - 0.00 in Fog , Snow Snow
5:05 PM 26.6 °F 15.7 °F 24.8 °F 93% 29.67 in 0.2 mi NNW 12.7 mph - 0.01 in Fog , Snow Heavy Snow
5:24 PM 26.6 °F 15.2 °F 24.8 °F 93% 29.67 in 0.2 mi NNW 13.8 mph - 0.02 in Fog , Snow Heavy Snow
5:53 PM 26.1 °F 14.0 °F 24.1 °F 92% 29.71 in 0.5 mi NW 15.0 mph - 0.02 in Fog , Snow Snow
6:41 PM 24.8 °F 16.9 °F 21.2 °F 86% 29.71 in 0.8 mi WNW 6.9 mph - 0.02 in Snow Light Snow
6:53 PM 24.1 °F 15.2 °F 21.9 °F 91% 29.75 in 1.5 mi West 8.1 mph - 0.02 in Snow Light Snow
7:04 PM 23.0 °F 14.7 °F 21.2 °F 93% 29.72 in 4.0 mi WSW 6.9 mph - 0.00 in Snow Light Snow
7:10 PM 23.0 °F 13.9 °F 21.2 °F 93% 29.73 in 1.8 mi WSW 8.1 mph - 0.00 in Snow Light Snow
7:17 PM 23.0 °F 13.1 °F 21.2 °F 93% 29.74 in 0.8 mi WSW 9.2 mph - 0.00 in Snow Light Snow
7:26 PM 24.8 °F 13.4 °F 21.2 °F 86% 29.75 in 0.8 mi WSW 12.7 mph - 0.00 in Snow Light Snow
7:42 PM 23.0 °F 10.1 °F 19.4 °F 86% 29.75 in 1.0 mi WSW 15.0 mph - 0.00 in Snow Light Snow
7:51 PM 23.0 °F 10.1 °F 19.4 °F 86% 29.75 in 0.8 mi WSW 15.0 mph - 0.00 in Snow Light Snow
7:53 PM 23.0 °F 10.1 °F 19.9 °F 88% 29.80 in 0.8 mi WSW 15.0 mph - 0.00 in Snow Light Snow
8:02 PM 21.2 °F 7.8 °F 19.4 °F 93% 29.75 in 1.0 mi WSW 15.0 mph - 0.00 in Snow Light Snow
8:37 PM 21.2 °F 7.8 °F 17.6 °F 86% 29.75 in 1.8 mi West 15.0 mph - 0.00 in Snow Light Snow
8:40 PM 21.2 °F 9.5 °F 17.6 °F 86% 29.75 in 3.0 mi West 11.5 mph - 0.00 in Snow Light Snow
8:53 PM 21.0 °F 9.9 °F 18.0 °F 88% 29.79 in 9.0 mi WSW 10.4 mph - 0.00 in   Overcast
9:49 PM 21.2 °F 9.5 °F 17.6 °F 86% 29.75 in 2.0 mi WSW 11.5 mph - 0.00 in Snow Light Snow
9:53 PM 21.0 °F 8.6 °F 18.0 °F 88% 29.80 in 2.0 mi WSW 12.7 mph - 0.00 in Snow Light Snow
10:10 PM 21.2 °F 8.9 °F 17.6 °F 86% 29.76 in 2.0 mi West 12.7 mph - 0.00 in Snow Light Snow
10:18 PM 21.2 °F 8.9 °F 17.6 °F 86% 29.75 in 2.0 mi West 12.7 mph - 0.00 in Snow Light Snow
10:32 PM 19.4 °F 6.6 °F 17.6 °F 93% 29.75 in 3.0 mi West 12.7 mph - 0.00 in Snow Light Snow
10:53 PM 19.9 °F 9.3 °F 17.1 °F 89% 29.79 in 2.5 mi West 9.2 mph - 0.00 in Snow Light Snow
11:14 PM 19.4 °F 10.4 °F 17.6 °F 93% 29.76 in 4.0 mi West 6.9 mph - 0.00 in Snow Light Snow
11:53 PM 19.0 °F 10.0 °F 16.0 °F 88% 29.81 in 5.0 mi West 6.9 mph - 0.00 in Snow Light Snow